TimeCDT,TemperatureF,Dew PointF,Humidity,Sea Level PressureIn,VisibilityMPH,Wind Direction,Wind SpeedMPH,Gust SpeedMPH,PrecipitationIn,Events,Conditions,WindDirDegrees,DateUTC
12:58 AM,69.4,58.1,67,29.97,10.0,WNW,3.5,-,N/A,,Clear,300,2013-07-02 05:58:00
1:58 AM,64.6,58.3,80,29.97,10.0,WSW,5.8,-,N/A,,Clear,240,2013-07-02 06:58:00
2:58 AM,61.3,57.2,86,29.97,10.0,NE,1.2,-,N/A,,Clear,50,2013-07-02 07:58:00
3:58 AM,61.7,57.4,86,29.99,10.0,Calm,Calm,-,N/A,,Clear,0,2013-07-02 08:58:00
4:58 AM,59.4,55.8,88,29.99,10.0,West,3.5,-,N/A,,Clear,260,2013-07-02 09:58:00
5:58 AM,59.7,56.8,90,30.01,10.0,WSW,5.8,-,N/A,,Clear,250,2013-07-02 10:58:00
6:58 AM,62.1,58.8,89,30.01,10.0,WSW,5.8,-,N/A,,Clear,240,2013-07-02 11:58:00
7:55 AM,68.0,59.0,73,30.03,10.0,WNW,5.8,-,N/A,,Partly Cloudy,290,2013-07-02 12:55:00
8:55 AM,73.4,59.0,61,30.03,10.0,WNW,5.8,-,N/A,,Clear,290,2013-07-02 13:55:00
9:55 AM,77.0,57.2,50,30.03,10.0,WNW,8.1,-,N/A,,Clear,290,2013-07-02 14:55:00
10:55 AM,80.6,57.2,45,30.03,10.0,WNW,6.9,-,N/A,,Clear,290,2013-07-02 15:55:00
11:58 AM,82.4,54.5,38,30.02,10.0,North,11.5,18.4,N/A,,Clear,350,2013-07-02 16:58:00
12:58 PM,83.8,55.0,37,30.02,9.0,North,8.1,-,N/A,,Scattered Clouds,360,2013-07-02 17:58:00
1:58 PM,84.6,54.7,36,30.01,10.0,Variable,4.6,-,N/A,,Partly Cloudy,0,2013-07-02 18:58:00
2:58 PM,85.3,52.9,33,30.00,10.0,Variable,5.8,-,N/A,,Scattered Clouds,0,2013-07-02 19:58:00
3:58 PM,84.7,52.3,33,29.99,9.0,NW,8.1,-,N/A,,Clear,310,2013-07-02 20:58:00
4:58 PM,84.0,53.8,35,29.99,8.0,North,8.1,-,N/A,,Partly Cloudy,360,2013-07-02 21:58:00
5:58 PM,84.4,52.7,33,29.99,9.0,North,5.8,-,N/A,,Clear,350,2013-07-02 22:58:00
6:58 PM,82.2,55.8,40,30.00,9.0,NNE,3.5,-,N/A,,Clear,20,2013-07-02 23:58:00
7:58 PM,78.6,60.3,53,30.01,9.0,NNE,2.3,-,N/A,,Partly Cloudy,20,2013-07-03 00:58:00
8:58 PM,74.3,58.3,57,30.02,10.0,NNE,5.8,-,N/A,,Clear,30,2013-07-03 01:58:00
9:58 PM,74.1,58.5,58,30.05,10.0,NE,8.1,-,N/A,,Clear,50,2013-07-03 02:58:00
10:58 PM,71.4,58.5,64,30.06,10.0,NE,4.6,-,N/A,,Clear,40,2013-07-03 03:58:00
11:58 PM,70.3,58.5,66,30.07,10.0,NE,8.1,-,N/A,,Clear,40,2013-07-03 04:58:00